Content
SEND FEEDBACK

Daily
Averages
Monthly
Summary
United States of America

KINSTON, ALABAMA


Home > North America > United States > Alabama
Elevation: 27 feet     Latitude: 31 14N     Longitude: 086 11W

WEATHER
 
SELECT A DAY
Number of Records: 109,562;   Date Range: 1/3/95 - 9/30/14
 
SHARE

PRINT THIS DATA

[ ← Previous Day ]
WEATHER ALMANAC - FEBRUARY 13, 2013
[ Next Day → ]
[ °C ]   °F
Weather ElementAverageHighLow
Temperature55.4 °F62.6 °F (3:51 am)46 °F (11:56 pm)
Dewpoint49.7 °F57.9 °F (3:56 am)39.9 °F (10:56 pm)
Humidity81.2 %94 % (12:44 am)67 % (10:56 am)
Barometer29.88 in30.04 in (10:56 pm)29.75 in (1:56 am)
Wind Speed7.3 mph17.3 mph (2:41 pm)
Wind Gust24.2 mph (4:56 am)
Weather ElementAverage
Visibility6.2 mi
Wind DirectionWSW (251.7 °)

Weather ElementTotal
Precipitation0.47 in
Heating Degree Days10.7 (Base 65)
Growing Degree Days4.3 (Base 50)
Averaged from 47 records on February 13, 2013
WEATHER CONDITIONS BREAKOUT
WIND DIRECTION BREAKOUT
WEATHER BY HOUR - FEBRUARY 13, 2013
[ °C ]   °F
Local TimeTemperatureDewpointHumidityBarometerVisibilityWind DirectionWind SpeedGust SpeedPrecipitationEventsConditions
12:44 AM57.2 °F55.4 °F94 %29.79 in2.0 miCalm0.00 inOvercast
12:56 AM57.9 °F54.0 °F87 %29.77 in2.0 miCalm0.00 inOvercast
1:07 AM57.2 °F53.6 °F88 %29.78 in1.2 miSSE (150°)3.5 mphOvercast
1:17 AM57.2 °F55.4 °F94 %29.78 in1.0 miCalmOvercast
1:26 AM57.2 °F53.6 °F88 %29.77 in0.8 miCalmOvercast
1:56 AM59.0 °F54.0 °F83 %29.75 in0.2 miCalmHaze
2:56 AM59.0 °F55.0 °F87 %29.76 in0.2 miCalm0.01 inFogFog
3:12 AM59.0 °F55.4 °F88 %29.77 in0.8 miCalmMist
3:21 AM59.0 °F55.4 °F88 %29.77 in1.2 miCalmOvercast
3:34 AM60.8 °F55.4 °F82 %29.78 in0.8 miNW (310°)4.6 mph18.4 mphHaze
3:47 AM60.8 °F57.2 °F88 %29.79 in1.2 miWNW (300°)6.9 mphOvercast
3:51 AM62.6 °F57.2 °F82 %29.79 in2.0 miWNW (290°)6.9 mphOvercast
3:56 AM62.1 °F57.9 °F86 %29.79 in2.5 miWNW (300°)11.5 mphOvercast
4:24 AM62.6 °F57.2 °F82 %29.81 in4.0 miNW (310°)16.1 mph20.7 mphOvercast
4:36 AM62.6 °F57.2 °F82 %29.82 in8.0 miNW (310°)11.5 mphOvercast
4:46 AM62.6 °F57.2 °F82 %29.83 in9.0 miNW (320°)12.7 mphOvercast
4:56 AM61.0 °F55.9 °F83 %29.82 in10.0 miWNW (300°)15.0 mph24.2 mphMostly Cloudy
5:04 AM60.8 °F55.4 °F82 %29.83 in10.0 miNW (310°)11.5 mph20.7 mphScattered Clouds
5:56 AM59.0 °F54.0 °F83 %29.84 in10.0 miWNW (290°)5.8 mphClear
6:56 AM57.0 °F52.0 °F83 %29.86 in8.0 miWNW (290°)3.5 mphClear
7:56 AM57.9 °F51.1 °F78 %29.89 in10.0 miWNW (300°)11.5 mphOvercast
8:56 AM59.0 °F50.0 °F72 %29.89 in10.0 miNW (310°)10.4 mphPartly Cloudy
9:56 AM59.0 °F48.9 °F69 %29.90 in10.0 miNW (310°)12.7 mphPartly Cloudy
10:56 AM57.9 °F46.9 °F67 %29.91 in10.0 miNW (320°)12.7 mphPartly Cloudy
11:56 AM55.9 °F46.9 °F72 %29.91 in8.0 miNW (320°)8.1 mph0.00 inRainLight Rain
12:12 PM55.4 °F48.2 °F77 %29.91 in7.0 miNW (310°)9.2 mph0.02 inRainLight Rain
12:56 PM55.0 °F48.0 °F77 %29.91 in10.0 miWest (270°)3.5 mph0.02 inRainLight Rain
1:11 PM55.4 °F48.2 °F77 %29.91 in10.0 miWNW (290°)4.6 mph0.01 inRainLight Rain
1:56 PM53.1 °F46.9 °F80 %29.91 in3.0 miWNW (300°)10.4 mph0.06 inRainRain
2:02 PM53.6 °F48.2 °F82 %29.93 in2.0 miNW (320°)11.5 mph0.01 inRainRain
2:07 PM53.6 °F46.4 °F77 %29.93 in3.0 miNW (310°)10.4 mph0.02 inRainRain
2:23 PM51.8 °F46.4 °F82 %29.90 in4.0 miNW (310°)6.9 mph0.04 inRainLight Rain
2:41 PM51.8 °F44.6 °F76 %29.94 in5.0 miNNW (330°)17.3 mph0.06 inRainRain
2:45 PM50.0 °F44.6 °F82 %29.94 in6.0 miNNW (330°)16.1 mph0.07 inRainLight Rain
2:56 PM50.0 °F44.1 °F80 %29.93 in3.0 miNNW (330°)12.7 mph0.09 inRainRain
3:06 PM50.0 °F44.6 °F82 %29.91 in6.0 miNNW (340°)8.1 mph0.00 inRainLight Rain
3:48 PM50.0 °F44.6 °F82 %29.96 in10.0 miNW (320°)9.2 mph0.03 inOvercast
3:56 PM50.0 °F44.1 °F80 %29.94 in10.0 miNNW (330°)9.2 mph0.03 inOvercast
4:17 PM50.0 °F44.6 °F82 %29.93 in10.0 miNNW (330°)8.1 mph0.00 inRainLight Rain
4:56 PM50.0 °F44.1 °F80 %29.94 in10.0 miNNW (330°)6.9 mph0.00 inScattered Clouds
5:56 PM50.0 °F44.1 °F80 %29.95 in10.0 miNNW (330°)4.6 mphClear
6:56 PM50.0 °F45.0 °F83 %29.97 in10.0 miNNW (330°)4.6 mphClear
7:56 PM50.0 °F44.1 °F80 %29.99 in10.0 miNNW (340°)5.8 mphClear
8:56 PM48.9 °F42.1 °F77 %29.99 in10.0 miNorth (10°)4.6 mphClear
9:56 PM48.9 °F41.0 °F74 %30.02 in10.0 miNNW (340°)4.6 mphClear
10:56 PM46.9 °F39.9 °F77 %30.04 in10.0 miNNW (340°)5.8 mphClear
11:56 PM46.0 °F39.9 °F79 %30.03 in10.0 miNorth (350°)3.5 mphClear
Hourly data recorded from K79J, located miles away from Kinston, Alabama







STORIES FROM OUR PARTNERS